EW9204 Weather Reports


Display with metric or nautical units.
time (UTC)temp
F
wind
direction
speed
MPH
gust
MPH
rain 1hr
in
rain 24hr
in
rain mn
in
humidity
%
barometer
mb
20260509045016 47 51 1.0 3.0 0.00 0.02 0.00 83 1013.5
20260509044533 48 56 1.0 3.0 0.00 0.02 0.00 83 1013.3
20260509044015 48 61 1.0 3.0 0.00 0.02 0.00 83 1013.4
20260509043517 48 61 1.0 2.0 0.00 0.02 0.00 82 1013.5
20260509043036 48 83 1.0 2.0 0.00 0.02 0.00 81 1013.4
20260509042519 49 80 0.0 2.0 0.00 0.02 0.00 81 1013.5
20260509042017 49 51 0.0 1.0 0.00 0.02 0.00 81 1013.3
20260509041536 49 93 0.0 1.0 0.00 0.02 0.00 80 1013.4
20260509041017 49 0 0.0 1.0 0.00 0.02 0.00 80 1013.5
20260509040522 50 0 0.0 2.0 0.00 0.02 0.00 80 1013.6
20260509040034 50 0 0.0 2.0 0.00 0.02 0.00 79 1013.6
20260509035517 50 0 0.0 2.0 0.00 0.02 0.02 79 1013.7
20260509035019 51 0 0.0 2.0 0.00 0.02 0.02 78 1013.7
20260509034535 51 111 0.0 2.0 0.00 0.02 0.02 78 1013.7
20260509034015 51 80 1.0 2.0 0.00 0.02 0.02 77 1013.7
20260509033516 51 0 0.0 2.0 0.00 0.02 0.02 76 1013.9
20260509033033 51 0 0.0 2.0 0.00 0.02 0.02 75 1013.8
20260509032515 51 0 0.0 4.0 0.00 0.02 0.02 75 1013.8
20260509032014 51 129 1.0 4.0 0.00 0.02 0.02 75 1013.8
20260509031533 52 123 1.0 5.0 0.00 0.02 0.02 74 1013.8
20260509031017 52 232 1.0 5.0 0.00 0.02 0.02 74 1013.9
20260509030516 52 0 0.0 2.0 0.00 0.02 0.02 74 1013.9
20260509030037 52 178 0.0 3.0 0.00 0.02 0.02 74 1013.8
20260509025517 52 250 1.0 3.0 0.00 0.02 0.02 74 1013.8
20260509025019 51 265 1.0 3.0 0.00 0.02 0.02 74 1013.8
20260509024537 51 254 1.0 2.0 0.00 0.02 0.02 75 1013.7
20260509024017 51 221 1.0 3.0 0.00 0.02 0.02 75 1013.6
20260509023517 51 249 1.0 3.0 0.00 0.02 0.02 76 1013.6
20260509023042 50 123 0.0 2.0 0.00 0.02 0.02 77 1013.5
20260509022516 50 0 0.0 2.0 0.00 0.02 0.02 77 1013.5
20260509022017 50 334 0.0 2.0 0.00 0.02 0.02 77 1013.5
20260509021535 50 309 0.0 2.0 0.00 0.02 0.02 78 1013.5
20260509021018 50 0 0.0 2.0 0.00 0.02 0.02 77 1013.5
20260509020519 50 168 0.0 2.0 0.00 0.02 0.02 78 1013.3
20260509020030 50 0 0.0 1.0 0.00 0.02 0.02 77 1013.2
20260509015518 50 93 0.0 2.0 0.00 0.02 0.02 78 1013.2
20260509015017 50 0 0.0 2.0 0.00 0.02 0.02 78 1013.1
20260509014538 50 51 0.0 1.0 0.00 0.02 0.02 79 1013.1
20260509014014 49 0 0.0 1.0 0.00 0.02 0.02 78 1013.0
20260509013517 49 0 0.0 1.0 0.00 0.02 0.02 77 1013.0
20260509013030 49 0 0.0 2.0 0.00 0.02 0.02 77 1012.9
20260509012517 49 51 0.0 2.0 0.00 0.02 0.02 77 1012.8
20260509012021 49 9 0.0 2.0 0.00 0.02 0.02 78 1012.8
20260509011534 49 56 1.0 2.0 0.00 0.02 0.02 77 1012.8
20260509011014 49 9 0.0 2.0 0.00 0.02 0.02 77 1012.8
20260509010519 49 51 1.0 2.0 0.00 0.02 0.02 77 1012.6
20260509010033 50 64 1.0 2.0 0.00 0.02 0.02 76 1012.6
20260509005517 50 67 0.0 2.0 0.00 0.02 0.02 75 1012.6
20260509005017 50 41 1.0 2.0 0.00 0.02 0.02 75 1012.5
20260509004539 50 93 0.0 2.0 0.00 0.02 0.02 75 1012.4
20260509004018 50 51 1.0 2.0 0.00 0.02 0.02 73 1012.3
20260509003518 50 59 1.0 2.0 0.00 0.02 0.02 73 1012.2
20260509003051 50 59 1.0 2.0 0.00 0.02 0.02 72 1012.2
20260509002517 51 51 1.0 2.0 0.00 0.02 0.02 70 1012.2
20260509002017 51 41 0.0 2.0 0.00 0.02 0.02 69 1012.1
20260509001532 52 57 1.0 2.0 0.00 0.02 0.02 68 1012.3
20260509001017 52 57 1.0 2.0 0.00 0.02 0.02 68 1012.4
20260509000519 53 93 1.0 2.0 0.00 0.02 0.02 67 1012.5
20260509000038 53 51 0.0 2.0 0.00 0.02 0.02 64 1012.3
20260508235518 54 0 0.0 2.0 0.00 0.02 0.02 62 1012.3
20260508235016 54 0 0.0 2.0 0.00 0.02 0.02 61 1012.2
20260508234533 55 0 0.0 2.0 0.00 0.02 0.02 60 1012.1
20260508234017 55 0 0.0 2.0 0.00 0.02 0.02 61 1012.0
20260508233517 55 282 0.0 3.0 0.00 0.02 0.02 60 1012.0
20260508233035 55 126 0.0 4.0 0.00 0.02 0.02 59 1012.0
20260508232517 55 93 1.0 4.0 0.00 0.02 0.02 61 1012.0
20260508232018 55 0 0.0 3.0 0.00 0.02 0.02 61 1012.1
20260508231539 56 93 0.0 3.0 0.00 0.02 0.02 61 1012.0
20260508231017 56 341 0.0 3.0 0.00 0.02 0.02 59 1011.9
20260508230518 56 221 1.0 6.0 0.00 0.02 0.02 59 1012.0
20260508230033 56 0 1.0 6.0 0.00 0.02 0.02 58 1011.9
20260508225523 56 334 1.0 4.0 0.00 0.02 0.02 59 1011.8
20260508225017 56 312 1.0 4.0 0.00 0.02 0.02 58 1011.9
20260508224532 56 148 1.0 4.0 0.00 0.02 0.02 59 1011.8
20260508224014 56 319 1.0 3.0 0.00 0.02 0.02 58 1011.8
20260508223519 56 344 1.0 3.0 0.00 0.02 0.02 60 1011.7
20260508223034 56 93 1.0 3.0 0.00 0.02 0.02 59 1011.8
20260508222516 56 329 1.0 4.0 0.00 0.02 0.02 59 1011.9
20260508222016 56 334 1.0 8.0 0.00 0.02 0.02 59 1012.0
20260508221534 56 0 0.0 8.0 0.00 0.02 0.02 60 1011.9
20260508221018 56 249 2.0 8.0 0.00 0.02 0.02 58 1011.8
20260508220521 56 347 2.0 8.0 0.00 0.02 0.02 60 1011.8
20260508220037 56 201 2.0 8.0 0.00 0.02 0.02 60 1011.8
20260508215516 56 191 2.0 8.0 0.00 0.02 0.02 60 1011.8
20260508215020 56 205 2.0 8.0 0.00 0.02 0.02 62 1011.9
20260508214532 56 0 1.0 4.0 0.00 0.02 0.02 60 1011.9
20260508214016 56 280 1.0 5.0 0.00 0.02 0.02 62 1012.0
20260508213514 56 9 1.0 5.0 0.00 0.02 0.02 62 1012.2
20260508213035 55 243 1.0 7.0 0.00 0.02 0.02 62 1012.2
20260508212515 55 111 1.0 7.0 0.00 0.02 0.02 63 1012.2
20260508212016 55 282 2.0 8.0 0.00 0.02 0.02 62 1012.3
20260508211533 55 291 1.0 8.0 0.00 0.02 0.02 62 1012.3
20260508211020 55 93 2.0 8.0 0.00 0.02 0.02 62 1012.2
20260508210516 55 208 3.0 8.0 0.00 0.02 0.02 61 1012.2
20260508210036 55 265 2.0 8.0 0.00 0.02 0.02 60 1012.3
20260508205517 55 123 2.0 8.0 0.00 0.02 0.02 60 1012.3
20260508205017 55 0 1.0 6.0 0.00 0.02 0.02 60 1012.4
20260508204534 55 113 1.0 8.0 0.00 0.02 0.02 58 1012.3
20260508204016 56 236 2.0 8.0 0.00 0.02 0.02 59 1012.3
20260508203515 56 0 2.0 7.0 0.00 0.02 0.02 59 1012.1
20260508203034 56 169 2.0 6.0 0.00 0.02 0.02 61 1012.1
20260508202516 56 236 2.0 9.0 0.00 0.02 0.02 59 1012.0
20260508202016 56 284 2.0 10.0 0.00 0.02 0.02 60 1012.0
20260508201530 56 34 3.0 10.0 0.00 0.02 0.02 60 1012.0
20260508201019 56 24 2.0 11.0 0.00 0.02 0.02 63 1012.0
20260508200517 56 249 3.0 11.0 0.00 0.02 0.02 63 1012.0
20260508200036 55 291 3.0 10.0 0.00 0.02 0.02 66 1011.9
20260508195518 55 215 2.0 10.0 0.00 0.02 0.02 66 1011.9
20260508195014 54 309 5.0 10.0 0.00 0.02 0.02 65 1012.1
20260508194536 54 286 2.0 10.0 0.00 0.02 0.02 68 1012.2
20260508194017 53 269 4.0 10.0 0.00 0.02 0.02 70 1012.4
20260508193516 53 250 4.0 10.0 0.00 0.02 0.02 73 1012.5
20260508193032 52 310 3.0 10.0 0.00 0.02 0.02 74 1012.5
20260508192516 52 9 2.0 8.0 0.00 0.02 0.02 74 1012.5
20260508192019 52 9 2.0 12.0 0.00 0.02 0.02 71 1012.8
20260508191537 53 178 2.0 12.0 0.00 0.02 0.02 68 1012.7
20260508191016 55 275 4.0 12.0 0.00 0.02 0.02 61 1012.8
20260508190517 55 309 4.0 14.0 0.00 0.02 0.02 58 1012.7
20260508190041 56 282 3.0 14.0 0.00 0.02 0.02 54 1012.6
20260508185516 56 289 4.0 14.0 0.00 0.02 0.02 51 1012.5
20260508185015 57 309 5.0 16.0 0.00 0.02 0.02 50 1012.2
20260508184530 57 286 4.0 16.0 0.00 0.02 0.02 51 1012.2
20260508184014 57 313 5.0 13.0 0.00 0.02 0.02 50 1012.2
20260508183514 57 9 3.0 14.0 0.00 0.02 0.02 52 1011.9
20260508183038 57 17 4.0 14.0 0.00 0.02 0.02 53 1012.1
20260508182518 56 309 2.0 11.0 0.00 0.02 0.02 55 1012.2
20260508182015 56 162 2.0 14.0 0.00 0.02 0.02 58 1012.2
20260508181535 56 304 5.0 14.0 0.00 0.02 0.02 57 1012.2
20260508181020 57 209 3.0 9.0 0.00 0.02 0.02 55 1012.1
20260508180516 57 189 2.0 7.0 0.00 0.02 0.02 52 1012.1
20260508180032 57 218 2.0 9.0 0.00 0.02 0.02 50 1012.0
20260508175520 57 51 3.0 9.0 0.00 0.02 0.02 49 1012.1
20260508175016 58 275 3.0 9.0 0.00 0.02 0.02 48 1012.1
20260508174554 59 281 3.0 12.0 0.00 0.02 0.02 47 1012.0
20260508174017 59 319 4.0 12.0 0.00 0.02 0.02 46 1011.9
20260508173517 59 265 4.0 11.0 0.00 0.02 0.02 49 1012.1
20260508173033 58 294 3.0 10.0 0.00 0.02 0.02 50 1012.3
20260508172517 58 132 2.0 10.0 0.00 0.02 0.02 48 1012.2
20260508172017 58 221 3.0 12.0 0.00 0.02 0.02 48 1012.1
20260508171534 58 244 4.0 12.0 0.00 0.02 0.02 48 1012.1
20260508171014 58 105 5.0 12.0 0.00 0.02 0.02 45 1012.2
20260508170517 58 196 4.0 11.0 0.00 0.02 0.02 49 1012.1
20260508170034 58 217 3.0 12.0 0.00 0.02 0.02 51 1012.2
20260508165515 57 178 5.0 12.0 0.00 0.02 0.02 48 1012.3
20260508165015 58 282 5.0 11.0 0.00 0.02 0.02 47 1012.1
20260508164530 59 155 4.0 9.0 0.00 0.02 0.02 46 1012.0
20260508164018 59 298 2.0 9.0 0.00 0.02 0.02 48 1012.2
20260508163517 58 275 2.0 12.0 0.00 0.02 0.02 47 1012.3
20260508163050 58 344 4.0 13.0 0.00 0.02 0.02 48 1012.6
20260508162517 58 183 5.0 13.0 0.00 0.02 0.02 46 1012.6
20260508162016 58 158 4.0 10.0 0.00 0.02 0.02 49 1012.6
20260508161530 58 153 3.0 10.0 0.00 0.02 0.02 47 1012.6
20260508161117 57 225 4.0 9.0 0.00 0.02 0.02 48 1012.8
20260508160518 57 126 1.0 10.0 0.00 0.02 0.02 47 1012.8
20260508160035 57 238 2.0 10.0 0.00 0.02 0.02 47 1013.1
20260508155515 58 210 4.0 9.0 0.00 0.02 0.02 46 1013.2
20260508155015 59 85 2.0 12.0 0.00 0.02 0.02 48 1013.2
20260508154530 58 182 4.0 12.0 0.00 0.02 0.02 44 1013.1
20260508154016 58 344 4.0 12.0 0.00 0.02 0.02 46 1013.2
20260508153515 58 259 4.0 10.0 0.00 0.02 0.02 44 1013.3
20260508153033 57 228 2.0 11.0 0.00 0.02 0.02 46 1013.2
20260508152516 57 182 3.0 11.0 0.00 0.02 0.02 46 1013.1
20260508152015 57 171 4.0 10.0 0.00 0.02 0.02 47 1013.0
20260508151536 57 309 1.0 9.0 0.00 0.02 0.02 48 1013.1
20260508151018 57 337 3.0 9.0 0.00 0.02 0.02 47 1013.2
20260508150516 56 178 2.0 10.0 0.00 0.02 0.02 45 1013.3
20260508150032 56 265 1.0 10.0 0.00 0.02 0.02 47 1013.4
20260508145513 56 323 3.0 10.0 0.00 0.02 0.02 49 1013.4
20260508145012 56 38 3.0 9.0 0.00 0.02 0.02 50 1013.5
20260508144535 55 78 3.0 10.0 0.00 0.02 0.02 51 1013.6
20260508144014 55 244 4.0 10.0 0.00 0.02 0.02 54 1013.7
20260508143513 56 265 4.0 9.0 0.00 0.02 0.02 53 1013.9
20260508143032 56 291 2.0 7.0 0.00 0.02 0.02 58 1014.0
20260508142512 55 232 2.0 8.0 0.00 0.02 0.02 63 1014.0
20260508142013 54 304 1.0 8.0 0.00 0.02 0.02 63 1014.0
20260508141530 54 273 2.0 6.0 0.00 0.02 0.02 61 1014.0
20260508141013 54 169 2.0 6.0 0.00 0.02 0.02 60 1013.9
20260508140517 54 265 2.0 6.0 0.00 0.02 0.02 61 1013.9
20260508140033 53 277 1.0 8.0 0.00 0.02 0.02 65 1013.9
20260508135515 53 158 3.0 8.0 0.00 0.02 0.02 63 1013.8
20260508135016 53 56 2.0 8.0 0.00 0.02 0.02 65 1013.8
20260508134536 53 115 2.0 8.0 0.00 0.02 0.02 66 1013.8
20260508134012 53 255 2.0 5.0 0.00 0.02 0.02 63 1013.9
20260508133518 53 347 2.0 10.0 0.00 0.02 0.02 65 1013.9
20260508133030 52 309 1.0 10.0 0.00 0.02 0.02 65 1013.9
20260508132515 52 284 2.0 9.0 0.00 0.02 0.02 65 1013.9
20260508132014 52 329 1.0 8.0 0.00 0.02 0.02 69 1014.0
20260508131531 51 325 2.0 8.0 0.00 0.02 0.02 68 1014.1
20260508131015 51 0 2.0 8.0 0.00 0.02 0.02 70 1014.0
20260508130514 51 325 2.0 8.0 0.00 0.02 0.02 71 1013.8
20260508130032 50 315 2.0 8.0 0.00 0.02 0.02 71 1013.9
20260508125530 50 315 2.0 9.0 0.00 0.02 0.02 71 1013.8
20260508125015 50 282 1.0 9.0 0.00 0.02 0.02 73 1013.9
20260508124531 50 344 3.0 11.0 0.00 0.02 0.02 73 1014.0
20260508124015 50 325 3.0 11.0 0.00 0.02 0.02 73 1014.0
20260508123514 50 336 3.0 9.0 0.00 0.02 0.02 73 1013.9
20260508123034 50 225 2.0 10.0 0.00 0.02 0.02 74 1013.9
20260508122514 50 51 3.0 10.0 0.00 0.02 0.02 74 1013.8
20260508122015 49 316 2.0 8.0 0.00 0.02 0.02 75 1013.9
20260508121534 49 334 1.0 7.0 0.00 0.02 0.02 76 1013.9
20260508121014 49 280 2.0 7.0 0.00 0.02 0.02 75 1013.9
20260508120513 49 225 2.0 6.0 0.00 0.02 0.02 77 1013.8
20260508120032 48 306 3.0 6.0 0.00 0.02 0.02 77 1013.6
20260508115515 48 178 2.0 6.0 0.00 0.02 0.02 77 1013.6
20260508115012 48 328 2.0 6.0 0.00 0.02 0.02 79 1013.6
20260508114532 48 321 2.0 6.0 0.00 0.02 0.02 78 1013.4
20260508114014 48 279 2.0 4.0 0.00 0.02 0.02 79 1013.4
20260508113514 48 334 1.0 5.0 0.00 0.02 0.02 80 1013.0
20260508113030 47 178 1.0 5.0 0.00 0.02 0.02 82 1013.1
20260508112513 47 141 2.0 5.0 0.00 0.02 0.02 83 1013.0
20260508112012 46 296 1.0 5.0 0.00 0.02 0.02 85 1013.0
20260508111534 46 316 2.0 5.0 0.00 0.02 0.02 85 1012.9
20260508111014 46 212 2.0 5.0 0.00 0.02 0.02 87 1012.8
20260508110514 45 9 1.0 5.0 0.00 0.02 0.02 89 1012.6
20260508110038 45 325 1.0 3.0 0.00 0.02 0.02 90 1012.7
20260508105516 44 0 1.0 4.0 0.00 0.02 0.02 91 1012.5
20260508105015 44 286 1.0 4.0 0.00 0.02 0.02 91 1012.5
20260508104528 43 317 1.0 3.0 0.00 0.02 0.02 91 1012.2
20260508104014 43 265 1.0 2.0 0.00 0.02 0.02 91 1012.2
20260508103515 43 325 0.0 2.0 0.00 0.02 0.02 91 1012.2
20260508103036 43 0 0.0 3.0 0.00 0.02 0.02 90 1012.2
20260508102517 43 265 1.0 3.0 0.00 0.02 0.02 90 1012.1
20260508102013 43 325 1.0 3.0 0.00 0.02 0.02 90 1012.0
20260508101537 43 309 1.0 3.0 0.00 0.02 0.02 90 1012.1
20260508101015 43 9 1.0 3.0 0.00 0.02 0.02 89 1012.1
20260508100514 43 330 1.0 3.0 0.00 0.02 0.02 89 1012.0
20260508100030 43 334 1.0 3.0 0.00 0.02 0.02 89 1012.0
20260508095515 44 9 1.0 3.0 0.00 0.02 0.02 88 1011.8
20260508095017 44 309 1.0 3.0 0.00 0.02 0.02 88 1011.8
20260508094531 44 334 1.0 3.0 0.00 0.02 0.02 88 1011.9
20260508094015 44 313 1.0 3.0 0.00 0.02 0.02 88 1011.9
20260508093515 44 314 2.0 3.0 0.00 0.02 0.02 88 1011.9
20260508093048 44 314 1.0 3.0 0.00 0.02 0.02 88 1011.8
20260508092516 44 304 1.0 3.0 0.00 0.02 0.02 88 1011.7
20260508092017 44 286 1.0 2.0 0.00 0.02 0.02 88 1011.7
20260508091533 44 309 0.0 2.0 0.00 0.02 0.02 88 1011.7
20260508091015 44 0 0.0 2.0 0.00 0.02 0.02 88 1011.6
20260508090515 44 103 0.0 3.0 0.00 0.02 0.02 88 1011.6
20260508090053 44 0 0.0 3.0 0.00 0.02 0.02 88 1011.6
20260508085516 44 273 1.0 3.0 0.00 0.08 0.02 88 1011.5
20260508085014 44 165 0.0 4.0 0.00 0.08 0.02 88 1011.5
20260508084535 44 0 1.0 4.0 0.00 0.08 0.02 88 1011.5
20260508084018 44 265 1.0 4.0 0.00 0.08 0.02 88 1011.5
20260508083516 44 309 1.0 3.0 0.00 0.08 0.02 88 1011.6
20260508083033 44 313 1.0 3.0 0.00 0.08 0.02 89 1011.6
20260508082514 44 9 1.0 3.0 0.00 0.08 0.02 89 1011.4
20260508082015 43 291 0.0 3.0 0.00 0.08 0.02 89 1011.5
20260508081535 43 265 1.0 3.0 0.00 0.08 0.02 89 1011.5
20260508081018 43 319 0.0 3.0 0.00 0.08 0.02 89 1011.5
20260508080516 43 0 0.0 3.0 0.00 0.08 0.02 88 1011.6
20260508080038 43 0 0.0 3.0 0.00 0.08 0.02 88 1011.6
20260508075515 43 0 0.0 2.0 0.00 0.11 0.02 88 1011.5
20260508075018 43 0 0.0 2.0 0.00 0.11 0.02 88 1011.5
20260508074536 43 304 0.0 4.0 0.00 0.11 0.02 88 1011.5
20260508074016 43 0 1.0 5.0 0.01 0.11 0.02 88 1011.6
20260508073518 44 321 1.0 5.0 0.01 0.11 0.02 88 1011.8
20260508073032 44 305 1.0 4.0 0.01 0.11 0.02 88 1011.8
20260508072517 44 296 1.0 5.0 0.02 0.11 0.02 87 1011.8
20260508072015 44 330 1.0 5.0 0.02 0.11 0.02 87 1011.8
20260508071530 44 309 1.0 6.0 0.02 0.11 0.02 87 1011.8
20260508071015 44 31 1.0 6.0 0.02 0.11 0.02 86 1011.8
20260508070518 44 0 0.0 3.0 0.02 0.11 0.02 86 1011.9
20260508070036 44 325 1.0 4.0 0.02 0.11 0.02 85 1012.1
20260508065515 44 309 1.0 4.0 0.02 0.15 0.02 84 1012.2
20260508065017 44 17 1.0 4.0 0.02 0.15 0.02 83 1012.2
20260508064535 44 325 1.0 5.0 0.02 0.15 0.02 82 1012.2
20260508064016 45 309 2.0 5.0 0.01 0.14 0.01 80 1012.3
20260508063519 45 328 2.0 11.0 0.01 0.14 0.01 78 1012.2
20260508063033 46 286 3.0 15.0 0.01 0.14 0.01 74 1012.3
20260508062516 47 325 6.0 15.0 0.00 0.13 0.00 67 1012.3
20260508062016 48 277 4.0 11.0 0.00 0.13 0.00 61 1012.1
20260508061530 48 305 4.0 11.0 0.00 0.13 0.00 57 1011.8
20260508061017 48 292 3.0 8.0 0.00 0.13 0.00 56 1011.5
20260508060522 47 325 2.0 8.0 0.00 0.13 0.00 60 1011.5
20260508060030 47 291 2.0 7.0 0.00 0.13 0.00 63 1011.3
20260508055516 46 298 2.0 4.0 0.00 0.14 0.00 64 1010.3
20260508055019 46 0 1.0 4.0 0.00 0.14 0.00 68 1009.9
20260508054538 45 59 1.0 4.0 0.00 0.14 0.00 70 1009.8
20260508054017 45 9 1.0 3.0 0.00 0.14 0.00 72 1009.8
20260508053516 45 9 0.0 3.0 0.00 0.14 0.00 78 1009.8
20260508053031 45 26 0.0 2.0 0.00 0.14 0.00 77 1009.8
20260508052517 45 334 0.0 3.0 0.00 0.14 0.00 80 1009.8
20260508052017 45 0 1.0 3.0 0.00 0.14 0.00 80 1009.7
20260508051534 44 26 1.0 2.0 0.00 0.14 0.00 82 1009.8
20260508051016 44 30 0.0 2.0 0.00 0.14 0.00 83 1009.9
20260508050516 44 34 0.0 2.0 0.00 0.14 0.00 83 1010.0
20260508050030 44 0 0.0 2.0 0.00 0.14 0.00 83 1010.0
20260508045515 43 9 0.0 2.0 0.00 0.14 0.00 82 1010.0